Location: Unspecified
(43.4680°N, 87.1740°E)
Time: 05:32:33
(UTC+00:00)

Helios 1B rocket - Pass Details

Date: 17 April 2021
Orbit: 575 x 581 km, 98.2° (Epoch: 16 May)

Event Time Altitude Azimuth Distance (km) Brightness Sun altitude
Rises 20:07:33 0° 8° (N) 2,807 6.9 -29.6°
Reaches altitude 10° 20:09:44 10° 4° (N) 1,904 5.8 -29.4°
Enters shadow 20:11:55 29° 352° (N) 1,079 4.1 -29.1°
